Regional Weather Roundup
Issued by NWS

Home | Current Version | Previous Version | Graphics & Text | Print | Product List | Glossary On
Versions: 1 2 3 4 5 6 7 8 9 10 11 12 13 14 15 16 17 18 19 20 21 22 23 24 25 26 27 28 29 30 31 32 33 34 35 36 37 38 39 40 41 42 43 44 45 46 47 48 49 50
000
ASUS43 KMPX 292310
RWRMN
WEATHER ROUNDUP FOR MINNESOTA
NATIONAL WEATHER SERVICE TWIN CITIES/CHANHASSEN MN
600 PM CDT TUE JUL 29 2014


NOTE: "FAIR" INDICATES FEW OR NO CLOUDS BELOW 12,000 FEET WITH NO
SIGNIFICANT WEATHER AND/OR OBSTRUCTIONS TO VISIBILITY. N/A MEANS
CURRENT SKY AND/OR WEATHER CONDITIONS ARE NOT AVAILABLE.

MNZ060>063-068>070-300000-
   Twin Cities Metro

CITY           SKY/WX    TMP DP  RH WIND       PRES   REMARKS
TWIN CITIES    MOSUNNY   79  55  43 W15       30.04F
ST PAUL        PTSUNNY   75  55  49 NW12      30.04S
CRYSTAL        CLOUDY    79  53  40 NW13      30.03F
BLAINE         MOSUNNY   75  57  53 NW6       30.05F
LAKEVILLE      MOSUNNY   75  55  50 W12       30.05F
EDEN PRAIRIE   MOSUNNY   78  55  44 W12       30.05S
SOUTH ST PAUL  CLOUDY    76  55  48 NW5       30.04S
LAKE ELMO      FAIR      77  57  50 NW9       30.05S
$$
MNZ001>005-007-008-013>017-022>024-027-028-300000-
   Northwest Minnesota

CITY           SKY/WX    TMP DP  RH WIND       PRES   REMARKS
BEMIDJI        SUNNY     74  54  50 NW13      30.09S
HALLOCK        SUNNY     77  54  44 N8        30.10S
ROSEAU         MOSUNNY   77  57  50 NW12G17   30.08S
WARROAD        SUNNY     77  57  50 NW10G17   30.07F
THIEF RVR FALL SUNNY     75  55  50 W12       30.10F
CROOKSTON      SUNNY     75  57  53 N9        30.11F
FOSSTON        SUNNY     73  55  53 NW9       30.11F
DETROIT LAKES  SUNNY     73  52  46 NW12      30.12F
MOORHEAD       SUNNY     75  52  43 N8        30.11F
PARK RAPIDS    MOSUNNY   75  53  46 NW15      30.09F
$$
MNZ006-009>011-018-025>026-300000-
   North Central Minnesota

CITY           SKY/WX    TMP DP  RH WIND       PRES   REMARKS
BAUDETTE       SUNNY     76  55  48 NW14      30.06F
FLAG ISLAND    SUNNY     75  55  50 NW15      30.05S
INTL FALLS     LGT RAIN  68  57  68 N8G20     30.04R
WASKISH        MOSUNNY   75  57  53 CALM      30.06F
BIG FORK       SUNNY     73  54  49 N6        30.05F
LONGVILLE      SUNNY     73  57  56 NW6       30.07F
GRAND RAPIDS   SUNNY     73  54  49 NW14      30.05F
CRANE LAKE     PTSUNNY   61  61 100 CALM      30.05R
ORR            MOSUNNY   72  54  53 NW9       30.02R
COOK           MOSUNNY   73  57  56 NW8G17    30.03R
$$
MNZ012-019>021-037-300000-
   Northeast Minnesota

CITY           SKY/WX    TMP DP  RH WIND       PRES   REMARKS
DULUTH         MOSUNNY   67  58  72 W9        30.03F
ELY            MOSUNNY   64  55  72 NW6       30.02R
HIBBING        MOSUNNY   75  56  51 NW10      30.03F
EVELETH        PTSUNNY   72  55  56 W9        30.03S
DULUTH HARBOR  PTSUNNY   66  61  82 W10G16    30.02F
TWO HARBORS    MOSUNNY   68  59  73 W7        29.99F
SILVER BAY     MOSUNNY   68  63  83 CALM      29.99S
GRAND MARAIS     N/A     56  54  93 CALM      30.01R
G MARAIS ARPRT CLOUDY    55  54  94 CALM      30.04S
$$
MNZ029>031-032-039>041-046>048-054>057-064-300000-
   West Central Minnesota

CITY           SKY/WX    TMP DP  RH WIND       PRES   REMARKS
FERGUS FALLS   SUNNY     75  50  41 NW9       30.10F
WHEATON        SUNNY     73  55  53 NW9       30.12F
MORRIS         SUNNY     75  54  46 NW8       30.10F
ALEXANDRIA     SUNNY     75  52  44 NW14      30.12F
ELBOW LAKE     FAIR      74  55  51 NW9       30.11F
WADENA         SUNNY     73  54  49 NW9       30.10F
GLENWOOD       SUNNY     75  52  43 NW13      30.11F
APPLETON       SUNNY     77  52  41 NW8       30.10F
BENSON         SUNNY     75  54  46 N12       30.10F
ORTONVILLE     MOSUNNY   75  52  43 N9        30.11F
MADISON        SUNNY     77  55  47 NW9       30.11F
WILLMAR        FAIR      77  52  41 NW10      30.11F
$$
MNZ033>034-036-042>043-049>051-058-059-300000-
   Central Minnesota

CITY           SKY/WX    TMP DP  RH WIND       PRES   REMARKS
ST CLOUD       SUNNY     77  53  43 NW10      30.06F
SAUK CENTRE    FAIR      75  53  46 NW12      30.10F
PAYNESVILLE    MOSUNNY   74  51  44 W14       30.09F
AITKIN         SUNNY     77  55  47 NW8       30.05S
PINE RIVER     MOSUNNY   75  55  50 N10       30.10F
BRAINERD       MOSUNNY   75  52  44 NW9       30.07F
STAPLES        MOSUNNY   75  52  43 NW12      30.09F
LONG PRAIRIE   FAIR      73  52  46 NW10      30.10F
LITTLE FALLS   SUNNY     75  48  38 W13       30.08F
LITCHFIELD     SUNNY     75  54  46 W12       30.09S
BUFFALO        PTSUNNY   78  52  40 NW10G16   30.07S
MAPLE LAKE     SUNNY     77  57  50 NW9       30.07F
$$
MNZ037-044-045-052-053-300000-
   East Central Minnesota

CITY           SKY/WX    TMP DP  RH WIND       PRES   REMARKS
PRINCETON      MOSUNNY   77  55  47 W14       30.05F
MORA           SUNNY     73  52  46 NW12G20   30.06F
CAMBRIDGE      MOSUNNY   79  59  50 NW10      30.03F
RUSH CITY      SUNNY     74  56  52 NW5       30.04F
MOOSE LAKE     MOSUNNY   75  54  46 NW10      30.02S
HINCKLEY       FAIR      75  57  53 NW8       30.04F
CLOQUET        HVY RAIN  64  55  72 NW12G30   30.06R
MCGREGOR       SUNNY     73  54  49 NW12G20   30.05F
$$
MNZ071>073-080-081-089-090-097-098-300000-
   Southwest Minnesota

CITY           SKY/WX    TMP DP  RH WIND       PRES   REMARKS
MONTEVIDEO     SUNNY     77  55  47 N8        30.11F
GRANITE FALLS  SUNNY     75  53  46 NW9       30.12F
CANBY          MOSUNNY   77  52  40 NW8       30.13F
MARSHALL       SUNNY     73  52  46 N7        30.11F
REDWOOD FALLS  SUNNY     77  52  41 NW12      30.09F
OLIVIA         SUNNY     77  52  41 NW10      30.09F
PIPESTONE      MOSUNNY   73  52  46 NW9       30.14F
WINDOM         SUNNY     75  54  46 NW9       30.12F
WORTHINGTON    PTSUNNY   73  54  49 NW9       30.14F
JACKSON        MOSUNNY   73  52  46 NW9       30.13F
TRACY          SUNNY     75  53  45 N6        30.12F
SLAYTON        PTSUNNY   74  51  44 CALM      30.14F
$$
MNZ065>067-074>077-082>085-091>093-300000-
   South Central Minnesota

CITY           SKY/WX    TMP DP  RH WIND       PRES   REMARKS
MANKATO        MOSUNNY   75  52  43 W12       30.08F
NEW ULM        SUNNY     75  54  46 W9        30.09F
ST JAMES       MOSUNNY   77  52  41 W9        30.10F
FAIRMONT       SUNNY     75  45  33 NW10      30.10F
GLENCOE        MOSUNNY   77  52  42 W10       30.07F
FARIBAULT      SUNNY     79  46  31 W12       30.08S
OWATONNA       SUNNY     75  52  43 NW9       30.08S
WASECA         SUNNY     73  50  43 W13       30.10F
ALBERT LEA     SUNNY     75  52  43 W8        30.09S
$$
MNZ078>079-086>088-094>096-300000-
   Southeast Minnesota

CITY           SKY/WX    TMP DP  RH WIND       PRES   REMARKS
ROCHESTER      SUNNY     75  54  47 NW10      30.08S
RED WING       PTSUNNY   75  57  53 N3        30.03S
STANTON        SUNNY     78  55  44 W14       30.04F
DODGE CENTER   SUNNY     75  54  46 NW13      30.08S
WINONA         MOSUNNY   79  52  38 NW12      30.03S
AUSTIN         MOSUNNY   75  54  46 NW12      30.08S
PRESTON        MOSUNNY   74  61  65 NW15      30.07S
$$
ABBREVIATIONS USED IN REMARKS
   TC - TEMPERATURES IN CELSIUS
  WCI - WIND CHILL INDEX
   HX - HEAT INDEX
  VSB - VISIBILITY
$$



USA.gov is the U.S. government's official web portal to all federal, state and local government web resources and services.